Theta_e
304 304 305 307 305 305 303 303 301 302 302 301 300 299 299 302 299 295 299 303 304 306 309 309 309 309 311 313 314 316 319 321 323 324 325 326 327 328 328 328 328 328 329 331 334 336 338 339 339 340 342 342 343 342 341 341 341 339 339 338 336 334 334 334 334 333 334 335 335 335 336 334 333 333 332 331 329 329 330 328 330 328 328 327 326 326 326
305 305 305 304 304 303 304 304 303 303 303 301 301 301 305 304 301 302 303 304 305 308 309 310 311 312 313 314 315 315 315 318 321 324 326 328 327 328 329 329 330 330 330 330 332 336 337 338 339 340 341 341 341 340 340 339 338 339 339 338 336 335 334 334 335 334 334 335 334 334 334 333 333 333 332 331 329 329 329 328 329 330 328 328 328 328 327
302 306 306 303 302 303 303 305 305 304 302 302 302 303 307 308 307 306 305 305 305 309 311 312 312 314 314 315 314 315 316 317 320 323 326 328 328 328 330 330 330 331 331 331 331 334 336 338 339 341 341 340 339 338 338 338 337 337 338 337 335 333 334 335 335 334 334 334 334 333 333 333 333 333 332 331 330 329 328 329 329 330 330 328 329 329 328
299 304 303 303 303 303 302 303 305 305 304 306 304 306 308 305 305 305 306 303 304 310 312 313 314 313 313 313 313 314 316 318 318 319 322 324 325 328 331 333 333 334 336 335 332 332 336 338 339 340 338 335 335 334 335 336 336 336 337 336 334 334 334 334 334 334 334 334 333 333 334 333 333 333 332 330 329 328 328 328 329 329 329 329 329 328 329
297 302 302 302 302 301 299 301 301 304 305 306 307 310 315 311 307 303 300 302 307 310 315 313 313 312 311 312 313 314 317 318 318 318 319 319 321 322 327 333 337 338 338 339 337 335 336 338 339 339 337 335 334 333 333 334 335 336 336 336 335 334 334 334 334 334 334 334 333 333 334 334 333 332 330 329 329 329 329 330 330 329 329 329 329 329 329
296 303 303 303 298 293 294 306 310 310 305 305 305 306 311 314 311 305 306 308 310 313 313 312 311 311 313 314 316 317 317 315 315 317 317 319 320 322 326 332 336 338 339 339 340 339 337 338 339 340 337 336 336 335 332 333 333 334 334 334 333 334 334 333 333 334 334 334 334 334 335 334 333 331 330 329 329 329 330 331 330 330 329 329 330 329 330
296 302 301 296 291 292 305 314 312 310 310 310 308 309 311 310 311 311 310 310 313 314 314 313 312 313 316 316 315 316 317 316 315 316 317 318 320 320 322 325 330 334 336 336 336 338 337 338 336 334 332 332 333 331 332 331 332 333 333 332 331 331 332 333 335 335 335 334 335 335 334 333 332 331 330 329 329 329 330 329 329 329 329 329 330 331 329
299 297 294 289 291 303 310 311 311 316 312 310 308 306 309 310 310 310 310 311 312 312 313 314 316 317 318 319 320 318 319 319 318 319 320 321 323 322 323 321 320 324 335 337 337 335 335 333 333 332 331 332 330 330 332 333 333 333 333 333 333 333 333 334 333 334 334 334 333 333 332 332 331 330 330 329 329 330 330 329 330 330 330 330 329 329 329
296 296 294 294 301 304 303 306 308 306 304 305 303 299 305 314 314 311 310 311 313 314 313 314 315 315 313 310 311 314 318 320 320 319 320 321 320 320 322 323 327 331 338 336 334 333 331 331 331 331 331 331 331 331 331 332 333 332 331 331 331 333 333 333 333 333 334 335 333 331 331 331 330 330 330 329 330 331 330 330 329 329 329 329 329 327 327
300 295 292 292 289 291 297 304 310 312 310 309 308 303 304 311 312 315 313 311 312 313 313 312 312 313 309 305 309 314 316 318 322 319 319 323 333 339 338 336 336 335 334 332 332 330 329 330 330 331 331 331 331 330 331 331 331 330 330 330 332 332 332 333 333 333 334 334 334 333 331 330 331 331 331 331 330 332 330 329 329 330 329 328 328 327 326
297 294 288 291 291 294 301 308 309 310 312 312 310 305 299 308 312 315 312 311 311 311 311 311 311 308 302 304 310 315 319 322 322 328 332 337 338 337 337 336 334 333 332 331 330 330 329 328 329 331 331 330 330 329 330 330 329 328 329 330 330 331 331 332 332 333 335 336 334 333 332 331 331 331 331 331 331 332 331 330 330 329 330 327 324 323 325
298 295 292 292 295 298 307 309 311 312 311 310 305 294 296 309 314 314 316 314 312 313 313 311 309 306 304 303 310 315 321 323 326 330 332 333 333 333 335 336 335 333 333 331 329 328 328 328 330 330 330 330 329 329 330 330 328 328 329 330 331 331 330 330 332 335 337 337 335 333 332 332 332 331 332 331 330 331 331 330 329 327 329 326 322 323 324
298 300 295 296 299 310 313 313 314 317 314 307 296 292 303 314 314 315 315 314 313 314 313 313 311 312 310 312 315 318 323 326 328 329 332 334 335 334 334 335 338 332 331 330 329 328 328 329 329 329 329 329 328 328 328 328 328 328 329 330 331 330 330 331 332 336 338 337 335 334 333 332 332 332 331 330 330 332 330 328 325 325 325 325 324 321 321
296 296 294 294 301 314 314 315 316 319 311 296 296 306 313 317 317 317 318 317 317 317 316 314 313 315 319 322 320 324 328 330 332 332 334 334 334 335 337 338 335 332 330 328 328 327 328 329 329 329 328 328 327 327 326 326 328 329 329 329 329 329 329 330 332 334 337 338 337 335 334 332 329 329 329 329 328 328 326 326 324 322 322 324 323 321 321
302 299 295 292 288 303 315 315 314 318 304 306 311 315 318 319 317 317 317 318 317 318 317 319 319 319 319 320 321 325 329 333 333 333 332 331 331 331 331 331 333 333 329 328 327 326 327 328 329 329 328 327 327 327 325 326 328 328 329 329 329 329 330 330 332 334 336 337 337 336 334 332 330 327 326 326 325 326 323 321 321 321 321 322 322 319 319
295 295 292 292 301 309 316 315 308 313 315 315 320 317 312 317 319 317 317 318 319 319 318 317 318 318 317 320 325 326 329 334 335 335 333 332 331 331 331 332 332 332 329 328 327 327 327 328 328 329 329 327 327 326 325 327 327 329 329 329 329 329 331 331 331 330 331 331 330 330 329 328 328 325 324 324 323 321 321 322 320 318 319 322 321 319 318
302 301 304 311 315 315 315 315 314 315 318 319 319 317 316 315 316 319 318 319 321 321 321 321 320 320 321 322 327 328 330 330 333 333 332 331 331 331 330 330 332 331 330 327 327 327 327 327 328 328 328 327 328 326 326 327 327 328 328 329 329 329 328 328 328 329 330 330 331 330 328 328 326 325 323 321 320 321 322 319 319 318 320 322 321 319 316
313 313 312 314 315 314 315 316 316 316 317 318 317 316 316 317 318 320 320 321 323 324 324 324 324 325 328 330 330 329 328 327 327 329 331 330 331 331 330 330 330 329 329 328 327 326 326 327 328 329 328 328 328 328 330 332 331 331 331 330 328 327 328 329 328 329 328 328 329 329 327 327 326 324 322 323 319 318 319 318 318 319 318 321 319 317 316
303 298 310 312 313 314 314 315 317 317 317 316 317 315 316 316 319 319 321 324 326 325 326 327 327 328 330 329 329 327 327 328 327 328 329 328 330 330 329 329 331 327 327 326 326 326 325 326 327 327 328 330 331 335 333 331 330 330 330 329 328 327 327 327 328 328 327 327 327 326 324 323 324 325 323 321 321 321 320 319 320 319 321 321 319 317 317
300 303 311 316 316 315 316 315 314 314 315 315 316 316 315 315 315 315 316 321 325 328 326 326 327 329 330 328 327 328 328 328 329 328 329 328 327 328 329 331 329 327 326 325 325 325 325 326 327 327 330 333 335 334 333 333 331 330 330 329 328 327 326 325 326 326 326 334 327 321 320 321 320 319 319 320 320 321 321 321 319 318 320 320 318 318 315
309 312 314 315 313 312 313 315 316 318 316 315 314 315 315 314 313 313 314 316 319 325 328 327 324 324 327 329 327 328 327 326 326 326 326 326 325 327 330 329 329 327 327 327 327 328 328 328 329 328 328 332 336 334 334 333 329 330 329 330 329 327 326 324 325 328 328 327 321 318 311 308 305 305 307 313 313 308 308 307 312 318 317 315 315 313 312
303 304 308 315 305 305 310 313 316 318 318 316 313 313 313 314 314 313 314 315 316 316 320 328 327 325 325 327 326 329 327 325 325 325 325 325 326 326 328 330 331 331 330 329 328 328 328 327 326 326 328 332 334 334 335 335 333 330 331 332 330 328 326 325 326 328 327 324 320 316 311 309 308 306 303 296 300 310 308 306 302 300 307 311 312 308 305
303 308 313 315 311 311 312 313 315 315 316 316 316 315 312 314 316 316 314 316 320 315 315 324 328 323 323 324 325 326 327 326 324 325 325 325 325 326 328 330 330 330 330 331 331 328 325 325 326 327 328 329 329 331 332 334 334 332 332 330 328 327 326 325 326 327 325 323 320 315 312 311 310 309 306 304 295 294 299 300 297 294 296 300 303 306 310
308 313 317 316 312 310 313 318 317 314 316 312 312 315 314 313 315 317 316 317 314 312 312 312 317 322 325 324 328 327 327 327 327 327 328 329 327 328 328 329 330 330 330 329 327 325 324 323 323 325 326 327 328 330 329 330 329 333 333 330 328 326 326 325 328 327 322 323 321 316 313 312 311 311 309 307 306 298 294 295 295 293 294 296 297 299 301
307 311 313 314 312 313 314 312 312 311 316 315 313 314 315 316 318 319 312 311 312 311 310 311 312 314 316 322 326 327 328 329 330 330 332 332 331 328 328 329 330 330 328 327 326 325 323 321 322 323 323 325 327 329 329 328 330 334 333 329 325 322 324 328 328 330 323 323 322 317 314 313 312 311 309 309 307 306 304 296 294 292 292 293 293 294 294
309 310 311 310 309 309 311 308 309 311 312 313 312 312 314 322 320 313 312 312 312 312 311 311 312 314 315 320 324 328 328 331 333 334 331 329 330 328 328 328 330 330 328 326 326 326 323 322 322 322 322 323 323 325 326 329 332 331 330 328 325 323 323 325 325 324 324 324 323 320 316 314 313 312 312 311 309 307 305 305 305 301 296 292 291 294 292
308 308 307 305 305 306 309 307 307 312 312 312 311 310 311 311 317 314 312 312 312 312 311 311 312 314 315 317 323 327 328 330 331 332 330 330 330 329 330 330 331 331 329 328 326 326 326 326 325 324 323 325 325 327 329 330 328 327 327 326 326 336 337 333 323 324 322 322 322 322 319 317 317 316 314 314 313 310 308 308 307 306 304 305 296 291 298
308 307 306 304 304 307 309 311 311 312 312 312 311 311 312 312 312 312 311 311 311 312 312 313 314 314 315 316 317 317 322 327 327 325 326 328 328 328 331 331 332 330 330 328 324 327 326 322 323 323 323 324 327 327 327 326 325 324 325 326 328 327 330 334 327 323 322 322 321 322 322 320 318 318 318 317 315 313 311 313 311 308 306 303 303 304 295
309 309 310 309 309 310 311 311 311 310 310 310 312 311 312 311 310 310 311 311 311 312 312 313 315 316 315 316 320 320 320 323 326 326 325 325 326 325 330 332 331 330 327 326 325 325 323 323 323 322 322 323 326 327 327 325 324 323 325 325 325 325 325 324 324 324 323 321 319 320 323 322 323 321 319 318 318 314 313 313 312 310 306 305 305 306 305
308 309 309 309 310 310 308 307 307 307 307 307 307 308 309 309 308 309 310 311 311 311 311 312 313 314 314 315 323 326 325 323 325 327 327 327 327 325 327 329 327 325 324 323 320 320 323 323 322 322 322 325 326 326 326 325 324 326 326 326 326 325 324 324 323 321 320 319 320 324 321 320 320 322 321 318 318 316 314 313 313 311 307 306 309 305 305
308 309 309 309 308 308 307 306 306 306 306 306 305 305 306 306 307 309 309 310 310 310 310 310 311 311 312 313 321 326 327 326 324 324 324 324 324 325 327 326 325 323 321 321 324 325 324 324 324 323 322 325 326 327 327 327 326 326 324 323 323 323 324 324 324 321 320 321 321 320 319 318 318 319 319 318 318 316 314 315 314 311 309 308 307 306 306
307 307 308 307 307 306 306 306 306 306 306 306 306 305 305 305 305 307 308 309 310 310 309 310 310 311 311 312 316 318 322 321 321 321 322 322 322 321 322 324 327 327 322 324 325 325 325 324 322 321 322 325 325 326 326 326 326 323 322 326 321 323 324 323 323 322 322 324 321 319 319 317 316 317 318 317 315 314 314 314 313 311 308 307 306 305 304
305 303 303 304 305 304 304 305 306 306 307 307 307 307 307 308 308 309 308 310 310 310 309 310 311 311 311 312 311 314 321 320 319 320 320 319 320 321 321 322 322 322 322 323 323 323 323 322 322 324 324 325 326 326 328 327 326 324 324 322 320 323 327 322 322 322 324 323 320 318 318 317 316 315 315 315 314 314 311 312 312 311 308 306 305 303 303
305 304 305 307 305 304 304 305 306 306 307 308 308 308 309 309 309 309 309 312 312 311 310 310 311 311 312 311 312 315 319 319 317 317 317 318 319 320 321 322 322 322 321 321 322 321 320 322 323 323 324 325 327 328 328 328 326 324 323 322 321 320 319 319 322 323 322 320 318 320 317 317 315 314 315 315 313 311 312 312 312 309 306 304 301 302 300
309 309 309 309 309 310 312 308 307 307 308 306 307 308 309 308 308 309 316 314 311 311 312 313 313 314 313 313 313 315 320 320 319 319 317 317 318 319 321 320 320 319 319 320 320 320 321 322 323 324 324 324 325 324 325 325 324 323 322 322 322 320 321 321 319 318 317 316 314 312 312 313 315 318 317 314 312 313 313 312 311 308 305 303 302 303 301
310 309 309 308 309 310 308 308 309 309 308 307 308 308 309 309 310 309 310 311 314 315 314 314 314 313 313 312 312 313 318 322 320 319 318 319 319 319 319 318 319 318 318 318 319 321 322 322 331 330 323 323 322 322 322 322 322 321 320 319 320 319 319 319 318 317 315 313 313 313 313 317 317 315 317 314 315 314 313 312 311 309 306 304 304 303 302
310 309 308 308 308 308 308 308 309 308 308 308 308 309 310 310 311 311 314 315 316 315 314 314 313 312 312 313 314 316 320 322 321 320 320 320 320 318 318 318 318 318 318 317 319 321 321 324 332 332 325 322 322 323 327 329 320 320 320 318 318 317 316 314 314 314 313 313 314 314 317 315 313 313 315 312 313 312 313 313 314 309 307 306 305 304 303
309 309 309 308 308 308 308 309 311 310 310 310 310 311 311 311 311 312 314 315 315 314 315 314 314 313 314 315 316 318 319 321 321 320 319 320 319 318 317 317 316 317 316 316 319 320 318 326 332 324 319 319 320 322 326 328 328 318 317 317 316 317 316 314 314 313 312 311 315 312 312 309 309 308 310 308 310 311 313 312 312 309 307 307 305 304 304
308 309 309 309 310 309 309 310 310 310 312 310 310 310 312 313 313 313 314 314 315 315 315 314 314 314 314 313 314 317 319 320 320 319 318 319 320 318 317 317 317 317 316 317 318 318 325 325 323 319 319 319 320 322 326 326 325 315 316 317 315 315 315 315 314 313 312 311 311 310 309 309 309 309 308 307 307 309 312 310 309 310 308 306 305 304 303
308 308 308 310 309 309 309 309 310 310 311 312 311 310 312 312 312 314 314 315 315 317 316 316 315 314 314 313 313 314 317 320 320 319 318 318 318 317 317 317 318 318 321 325 321 322 326 327 320 316 317 316 317 317 322 323 320 315 315 314 315 315 314 314 313 312 312 311 313 316 310 311 309 309 309 308 307 307 306 308 309 307 306 305 304 303 303
309 309 310 309 309 309 309 309 309 310 310 311 311 311 312 313 314 314 315 315 315 316 316 315 314 315 314 313 313 314 315 318 319 319 318 316 315 314 314 314 317 320 321 319 320 324 326 321 317 314 313 314 315 322 316 320 312 308 310 313 314 313 314 314 314 314 313 312 313 311 310 309 309 309 308 308 307 306 306 306 305 304 303 304 303 302 302
310 311 310 310 309 309 310 310 311 310 310 310 312 315 314 315 315 315 315 316 315 315 315 314 320 317 314 314 315 315 316 317 318 319 318 316 314 313 313 313 318 318 323 325 324 321 319 318 318 319 313 314 317 320 320 315 305 305 306 308 310 314 313 314 314 313 313 312 311 309 310 308 306 307 307 307 305 306 305 304 302 302 300 302 303 302 301
311 310 310 310 310 310 312 311 311 310 311 311 313 313 314 314 314 315 315 315 315 314 315 314 315 317 315 312 313 314 314 315 316 317 316 317 319 317 315 315 317 320 326 319 314 312 313 312 312 312 320 317 316 320 317 304 303 303 305 308 310 307 307 306 307 307 308 308 307 306 306 306 305 304 305 305 304 304 304 303 302 302 302 300 300 301 301
311 311 310 310 311 312 312 312 311 310 310 311 312 312 313 313 313 314 315 315 315 314 313 313 314 314 315 315 314 312 312 312 313 315 315 315 315 316 318 318 318 324 325 318 313 311 311 312 311 317 321 320 319 317 309 303 303 304 305 306 305 305 304 303 302 302 302 305 307 306 305 307 306 304 304 304 302 302 303 303 301 301 301 299 298 299 298
312 310 311 311 312 311 310 310 310 310 311 312 313 312 313 313 313 313 315 315 315 315 314 313 314 315 315 315 314 314 315 316 316 315 313 311 311 312 317 324 322 322 321 319 313 311 310 311 317 321 321 319 319 317 303 302 302 304 305 304 303 303 303 303 303 303 303 301 301 302 305 306 306 305 303 304 306 304 304 304 302 302 303 300 298 298 298
312 312 311 317 313 311 312 312 312 312 313 313 312 312 313 312 312 313 314 313 313 314 315 316 315 316 316 317 315 316 316 317 318 318 316 315 313 314 317 321 318 322 321 318 311 309 310 320 318 318 318 318 317 308 302 309 306 302 302 302 303 305 302 302 302 302 302 302 302 301 302 302 302 301 300 301 302 302 304 306 305 303 301 300 299 297 297
311 312 311 310 311 312 313 312 313 313 311 310 308 309 311 311 312 312 313 314 313 314 314 314 316 317 317 317 315 313 313 314 315 317 317 318 321 321 322 323 323 322 318 311 310 309 311 314 315 316 317 317 315 300 301 300 301 303 303 302 303 302 302 300 299 299 299 299 303 304 307 308 303 301 304 304 302 303 303 303 300 299 300 302 301 303 302
311 311 311 311 312 312 312 310 310 309 309 308 310 311 312 312 311 312 312 312 313 313 314 315 315 317 318 317 317 318 315 313 310 311 314 317 317 319 317 315 317 323 318 317 315 315 315 315 314 315 317 317 309 299 302 302 302 302 301 303 300 298 298 297 297 297 299 301 300 298 298 299 300 302 301 300 300 300 300 300 299 299 300 300 300 300 300
311 311 311 311 311 311 311 312 311 311 309 311 311 311 313 313 312 311 312 312 311 312 312 313 313 314 315 319 319 315 319 319 314 310 313 315 315 314 314 319 323 323 315 310 309 308 314 311 312 313 314 316 300 301 300 302 307 306 306 302 301 300 299 297 295 295 295 298 299 299 300 300 300 300 301 301 301 301 302 301 300 300 300 300 301 301 301
311 311 310 310 309 310 309 310 310 309 310 312 311 311 313 312 310 310 312 311 312 317 312 311 312 313 313 313 314 315 317 318 319 318 316 315 314 313 314 314 314 317 313 308 307 306 315 312 311 313 312 306 301 303 303 304 304 306 304 305 306 302 303 300 303 302 300 302 299 300 300 300 298 300 303 301 300 301 301 300 300 302 304 303 301 300 299
309 310 310 311 311 313 312 310 310 311 312 312 312 312 314 312 310 313 312 313 311 311 311 311 311 311 311 312 314 315 315 316 317 322 314 313 313 317 317 313 313 313 312 309 307 304 304 303 302 308 310 308 302 304 304 304 305 305 308 302 303 303 302 301 301 300 300 301 300 301 300 300 300 300 299 299 301 301 301 301 301 299 299 299 300 299 299
312 312 311 311 311 311 312 312 312 313 313 314 313 313 311 312 311 312 310 321 313 310 310 309 309 310 312 312 314 314 313 315 315 315 319 315 314 312 317 318 310 312 311 307 305 303 302 302 307 310 311 305 302 302 308 311 305 303 304 307 307 305 305 303 303 301 302 305 302 300 302 299 298 299 300 299 301 301 301 301 299 299 299 297 297 299 298
Wind_Speed
15 13 12 7 11 11 10 11 7 10 8 6 8 7 6 9 9 10 8 13 15 14 14 15 16 15 13 16 15 15 15 13 10 11 12 13 14 12 12 12 12 13 13 13 15 15 15 15 14 14 13 13 12 12 14 14 13 15 14 14 15 13 11 8 6 5 3 7 9 9 8 8 9 8 7 7 6 6 6 6 6 6 5 5 4 4 3
10 9 10 9 10 9 13 11 11 13 13 11 8 5 7 13 7 10 12 13 15 15 14 13 15 13 13 11 10 8 8 10 10 10 10 11 11 12 12 12 12 12 14 13 13 14 13 13 13 13 13 13 14 15 13 11 11 10 10 11 11 10 12 11 8 7 8 10 9 7 8 10 10 8 7 7 7 7 7 7 6 6 5 4 4 4 4
13 13 11 4 7 10 13 18 16 7 4 5 4 2 3 7 1 2 16 14 11 9 12 15 4 5 3 6 7 11 10 10 11 12 12 12 12 11 11 10 10 10 10 10 10 10 11 12 14 14 14 9 7 9 12 14 15 15 15 13 12 11 12 11 11 14 12 10 7 5 7 8 8 8 8 7 7 7 7 7 7 5 4 5 5 5 5
4 3 7 4 5 4 4 3 1 1 2 1 4 3 2 4 1 4 3 8 9 12 3 3 5 6 10 12 11 8 6 8 10 10 8 7 6 6 7 7 5 5 5 4 4 6 9 10 10 9 8 10 12 14 15 16 16 16 14 13 12 11 17 17 15 12 11 8 4 6 10 10 9 9 8 8 8 8 7 6 5 4 5 6 6 5 5
3 3 4 6 8 5 2 2 2 6 7 9 5 2 1 2 7 7 7 10 9 1 1 6 3 7 8 10 7 6 4 4 7 7 7 5 5 5 6 6 6 6 7 8 9 9 9 7 7 8 10 10 12 13 15 9 9 14 10 9 11 12 13 13 11 8 6 5 6 13 12 11 9 8 8 8 8 7 7 6 4 5 7 6 6 5 5
2 2 4 2 7 8 2 4 2 1 5 9 10 2 3 0 4 3 6 7 7 8 7 4 4 5 6 6 2 6 10 8 6 6 6 8 7 7 6 8 9 9 7 7 8 8 5 6 8 8 9 13 12 8 8 12 16 17 17 11 12 12 13 10 8 7 7 7 12 14 12 10 9 9 9 9 9 7 6 5 6 6 5 6 6 6 6
4 1 3 4 5 3 4 2 3 5 8 13 11 6 5 5 7 10 10 3 7 15 14 13 7 5 2 4 7 4 7 8 8 8 8 7 9 10 10 8 7 7 5 2 4 6 6 7 7 8 6 6 9 10 8 9 8 8 9 9 8 8 12 10 9 9 10 12 13 12 12 11 10 10 10 9 8 7 7 8 8 7 7 7 7 7 6
2 4 3 3 2 4 4 2 4 5 8 6 10 8 9 6 7 10 10 8 4 8 16 13 11 10 6 3 1 5 6 7 8 8 9 8 7 6 6 4 3 4 5 8 10 10 10 11 10 11 11 13 14 13 15 15 14 12 11 10 9 8 9 8 7 7 9 11 11 10 10 10 11 11 10 9 10 8 7 7 6 6 6 6 6 7 8
5 4 5 3 1 2 6 2 3 2 2 1 7 4 2 3 8 3 8 6 7 7 6 9 10 10 8 6 4 3 3 3 4 8 8 8 6 4 3 3 5 4 9 11 11 8 7 9 11 11 12 14 15 15 15 16 16 15 13 15 15 15 14 12 12 11 12 13 12 11 10 10 11 11 10 10 9 7 7 7 7 7 7 7 6 6 7
4 7 4 2 3 2 2 4 8 5 2 8 7 8 2 7 9 4 10 10 11 10 9 9 7 7 11 7 1 5 2 1 4 5 6 5 7 9 10 7 8 9 9 10 9 12 11 9 11 12 13 14 14 14 14 15 18 18 17 17 16 15 14 15 14 12 12 12 12 13 11 12 12 11 11 9 9 8 9 8 8 8 6 5 5 4 4
4 5 5 2 3 2 3 4 5 4 5 6 5 9 4 5 7 8 3 11 10 15 14 9 7 7 6 3 1 4 2 5 8 12 8 8 8 8 9 12 11 10 9 11 11 11 13 13 11 12 15 17 16 15 15 15 16 17 17 15 15 15 15 14 12 11 11 12 13 13 13 13 12 11 11 11 9 7 8 7 7 6 4 5 2 1 3
1 4 4 2 1 3 3 5 7 6 2 4 5 4 3 7 10 5 3 3 4 5 4 6 7 9 10 7 2 3 0 7 7 10 10 9 9 6 6 6 11 12 12 12 9 11 12 12 11 12 13 14 15 16 16 15 15 16 16 17 16 15 14 13 12 11 11 12 13 13 13 13 10 10 9 7 7 8 7 7 6 4 3 3 3 3 3
6 8 0 0 2 2 8 9 10 12 4 8 7 6 4 4 5 4 12 9 5 7 8 7 10 1 6 7 4 3 1 11 8 5 6 7 8 10 9 10 9 10 9 12 14 12 11 12 12 11 11 13 13 13 14 14 16 16 16 15 14 14 11 10 9 10 10 11 13 12 12 11 10 8 7 8 7 7 7 5 4 7 10 8 3 2 3
4 2 6 2 1 2 4 12 10 7 2 5 6 3 2 3 1 7 11 12 7 10 10 7 5 3 1 0 1 3 7 8 7 8 8 9 7 5 4 8 9 8 8 8 8 7 8 12 12 11 11 12 11 12 12 16 18 14 12 11 10 9 8 8 9 9 10 9 9 9 7 5 4 5 4 4 5 5 5 7 9 7 2 4 7 5 4
2 4 4 3 1 4 11 11 6 8 6 6 4 5 0 1 3 9 9 8 6 8 7 6 5 4 2 3 4 4 5 8 7 7 7 8 8 9 8 6 4 9 9 9 11 12 10 10 10 11 12 13 12 13 15 18 12 9 10 9 8 7 7 8 7 8 8 8 6 4 3 2 5 4 4 7 7 7 8 7 6 5 1 4 6 6 5
3 2 2 1 2 5 10 9 7 4 2 3 3 2 5 2 3 8 9 7 5 5 7 5 6 5 4 3 3 5 4 6 6 6 6 6 6 5 3 3 5 4 6 6 8 7 9 8 8 9 11 12 12 12 16 10 7 7 7 7 6 6 7 6 1 3 6 8 8 7 8 7 4 3 3 4 7 7 7 7 7 6 6 5 6 6 5
3 2 1 1 2 5 4 12 10 8 8 7 3 6 4 5 5 5 10 8 8 6 6 9 8 7 2 2 2 4 2 3 4 6 6 8 9 8 8 8 6 6 11 13 9 9 8 8 7 8 8 10 10 12 9 4 5 6 5 4 4 1 1 4 5 3 5 8 9 9 9 11 10 8 5 4 5 4 5 5 2 4 5 5 6 6 5
8 6 4 3 3 5 10 13 10 9 8 6 6 7 9 6 4 5 8 7 9 7 6 10 6 3 1 5 3 3 2 4 3 4 5 4 4 5 5 6 5 5 4 7 10 11 8 8 8 6 5 5 9 9 1 2 3 4 5 7 9 10 9 6 4 3 2 2 4 7 8 8 9 8 9 7 6 4 4 3 4 6 6 6 6 6 6
5 4 5 6 4 6 11 10 10 9 8 8 7 10 9 5 4 6 4 5 8 9 10 10 4 1 2 5 3 3 3 4 4 4 5 4 4 5 7 7 7 7 8 9 8 7 7 5 5 4 4 5 2 6 9 8 9 9 11 10 5 4 7 7 7 7 8 7 5 4 4 4 5 5 6 6 5 3 4 4 5 5 5 5 5 5 4
6 7 4 1 4 7 8 8 9 8 7 8 8 6 5 5 6 8 9 10 11 8 8 3 4 2 1 4 3 3 3 3 3 3 4 4 4 3 4 5 6 6 6 5 5 6 5 5 5 5 3 2 7 8 7 5 8 8 9 10 10 9 8 7 7 7 6 10 10 7 5 4 5 4 3 3 6 5 5 6 6 4 5 5 6 5 5
2 4 0 2 7 11 10 9 9 5 4 5 8 9 10 11 13 13 11 10 7 6 3 3 4 5 3 1 3 3 2 2 2 1 1 2 4 4 6 4 4 5 7 7 6 6 5 5 6 4 5 7 10 10 7 5 4 5 5 5 5 3 3 4 6 7 7 8 7 8 6 6 5 5 3 3 5 5 4 3 0 5 6 5 3 3 3
5 6 6 4 9 4 3 5 6 4 3 8 8 9 11 11 12 10 12 13 11 7 7 4 2 1 1 0 1 1 1 1 1 1 1 1 2 3 2 4 5 5 5 7 8 7 5 5 7 7 7 8 9 8 7 5 2 2 2 6 4 5 5 5 6 6 6 7 7 7 7 7 5 6 11 9 7 4 3 2 3 3 4 3 5 5 5
6 4 3 2 6 7 3 3 3 5 8 11 9 7 5 7 8 5 6 8 10 10 6 3 4 5 3 3 1 2 2 3 3 3 3 2 3 3 4 7 6 7 7 6 7 7 6 6 8 8 9 9 7 8 8 4 2 8 8 6 7 7 7 7 7 7 7 7 6 6 6 7 6 7 6 8 10 9 6 5 7 10 10 10 9 6 6
5 5 5 3 3 5 2 1 2 4 4 8 8 3 2 4 3 2 2 1 1 4 5 5 2 4 6 4 5 5 5 3 5 4 4 4 4 4 4 7 8 8 8 8 9 10 7 9 11 10 9 6 2 1 6 8 9 6 5 6 7 7 7 5 6 5 6 7 7 7 6 6 7 7 7 7 4 9 11 11 11 10 10 10 10 9 9
6 3 3 2 4 5 3 3 2 3 3 4 6 6 6 6 5 3 5 5 4 5 5 6 8 7 8 5 4 6 7 6 7 7 7 6 6 6 6 6 7 8 9 8 9 10 10 10 11 11 10 8 8 3 5 7 6 8 7 5 5 5 5 5 6 5 6 7 7 7 8 7 6 6 7 7 7 4 5 7 7 8 9 9 9 9 10
7 7 7 6 6 4 1 4 12 10 9 9 8 7 7 7 7 7 7 5 6 6 6 7 8 10 7 9 4 4 3 5 7 6 4 4 5 5 6 8 8 7 7 7 8 9 9 9 9 9 8 9 11 12 11 8 7 8 7 6 5 5 5 6 6 6 6 6 7 7 7 7 7 6 5 6 7 7 6 4 3 4 5 7 6 7 7
7 6 9 11 10 8 9 8 4 5 8 8 8 7 7 6 8 6 5 6 6 6 6 6 7 7 9 9 7 3 3 5 1 5 5 6 8 9 9 7 6 7 8 8 7 6 7 5 5 5 5 5 5 6 8 9 8 6 5 5 4 6 8 5 5 5 5 5 6 6 7 6 6 6 7 5 6 7 7 8 7 6 5 1 2 3 2
10 9 8 10 7 6 5 5 5 7 8 8 8 8 7 7 9 10 11 11 12 11 9 7 9 9 10 11 9 10 7 2 4 4 6 9 7 6 7 8 8 8 8 8 7 6 5 4 4 4 3 4 6 7 7 7 7 5 4 3 2 2 1 4 4 4 4 4 5 6 8 7 7 7 7 7 7 6 5 5 6 6 4 4 2 2 1
10 10 9 9 6 5 5 8 11 11 10 9 8 9 10 11 9 10 10 9 7 7 10 11 7 5 6 7 8 9 8 6 4 5 8 6 5 7 8 10 9 7 6 7 6 6 6 6 6 6 4 3 4 4 5 6 6 6 4 4 3 3 4 3 3 3 3 3 3 4 4 6 7 7 6 6 5 6 6 6 6 6 6 5 3 2 0
8 8 9 9 9 11 13 11 8 8 9 8 10 9 8 8 9 8 7 7 7 8 6 6 8 9 7 8 8 6 8 9 8 6 4 5 6 5 7 5 5 4 4 4 4 4 4 4 4 5 3 2 4 4 5 5 5 5 4 4 4 4 4 3 3 3 3 3 4 5 5 5 5 6 7 6 7 7 6 6 7 7 6 5 5 6 5
10 11 11 10 10 10 10 7 6 6 7 7 7 8 9 8 7 6 6 7 6 7 7 7 6 7 9 9 7 5 4 5 6 3 3 3 3 1 4 9 10 9 7 7 8 9 9 8 7 6 4 4 4 5 5 5 5 5 4 4 4 5 7 7 5 5 5 4 4 5 5 5 6 6 6 6 6 6 6 6 6 6 6 6 6 5 5
12 13 13 11 9 9 8 7 7 7 6 5 8 8 6 5 5 6 6 6 5 5 6 8 8 9 8 6 8 9 5 2 2 3 3 4 4 3 2 3 5 8 8 8 8 10 10 9 6 3 5 6 5 3 4 4 5 5 5 5 5 5 6 7 4 4 4 4 4 5 5 6 6 6 6 5 6 6 7 7 6 6 6 7 6 6 4
10 8 8 7 7 8 7 5 5 6 6 6 4 4 4 4 5 5 5 5 6 7 8 7 6 8 10 10 10 10 5 0 1 3 3 3 3 4 4 5 6 6 5 4 5 7 8 8 7 6 7 7 4 1 3 4 5 5 5 5 5 4 4 5 5 5 4 4 4 5 5 5 6 6 6 6 5 6 6 7 6 6 6 6 6 4 4
7 5 2 2 3 3 3 4 4 4 4 4 4 4 4 4 4 5 6 6 8 9 9 7 8 8 8 8 9 11 5 2 1 2 3 4 4 4 5 8 8 7 7 8 10 9 7 6 7 6 4 5 3 3 4 6 5 5 5 5 5 5 5 4 4 3 3 3 3 3 4 3 5 5 5 5 6 6 6 7 7 7 7 6 5 4 4
8 7 7 7 6 5 4 4 4 4 5 6 6 5 4 5 5 4 4 3 4 4 4 4 5 5 5 5 7 10 7 7 6 5 5 5 4 5 6 8 8 8 7 4 6 5 4 1 2 2 3 4 4 3 4 5 5 5 4 5 5 4 4 3 4 4 3 4 3 4 3 3 3 2 3 4 6 6 6 6 6 6 7 6 5 4 4
8 8 6 6 5 5 5 4 3 3 3 4 5 6 6 8 7 5 4 4 3 3 4 4 5 6 6 5 7 9 9 7 5 5 6 5 5 6 6 7 8 8 8 6 3 6 7 6 8 9 5 6 5 4 4 5 5 5 4 5 5 4 4 3 4 3 3 5 3 3 3 5 5 3 2 3 4 5 6 6 6 6 5 6 6 5 5
5 5 4 5 5 5 5 5 4 5 4 4 3 4 5 6 5 4 4 3 4 4 4 5 6 7 7 7 7 9 8 6 7 7 6 6 7 7 6 6 6 8 8 8 6 6 7 7 12 15 8 6 7 6 7 11 6 6 6 6 6 6 5 5 4 5 3 3 3 4 3 4 4 3 1 2 4 4 5 4 6 6 5 5 5 6 5
5 4 4 4 5 5 5 5 5 4 3 4 3 3 4 4 4 4 4 4 5 5 5 5 6 6 6 6 4 2 3 5 6 6 3 6 8 8 6 7 7 7 7 7 6 5 4 7 14 8 6 6 6 5 7 12 8 6 6 6 6 5 5 5 4 3 4 3 3 3 4 4 5 6 6 5 5 5 4 4 6 6 6 6 7 6 6
6 4 3 3 3 4 4 4 4 4 4 4 4 4 4 4 5 4 4 4 5 5 5 6 7 7 6 5 3 2 3 4 5 4 5 6 4 9 8 7 6 5 5 5 6 5 4 6 5 6 5 5 5 6 6 9 8 5 6 5 5 5 5 5 5 3 3 3 3 3 4 3 3 4 4 5 3 3 3 6 7 8 8 8 7 6 5
4 4 4 4 4 4 4 4 4 5 5 4 3 4 4 4 5 5 6 7 7 5 6 6 6 7 7 5 4 4 4 5 8 9 7 5 4 5 6 4 4 4 5 8 6 5 9 12 8 6 6 5 4 4 3 6 7 4 4 4 5 5 5 4 5 5 4 4 5 4 4 4 3 3 3 3 2 2 2 3 5 5 5 6 6 6 6
4 5 5 4 4 4 4 4 4 4 4 4 4 3 2 3 4 6 7 7 8 6 5 4 5 6 5 4 3 2 1 2 3 4 5 3 4 1 5 4 2 5 6 6 4 5 8 7 6 6 5 5 4 4 4 7 6 6 4 2 2 2 3 4 5 5 5 5 5 5 6 6 4 5 4 4 3 4 5 5 6 6 7 7 6 6 6
5 5 5 4 4 3 3 3 3 4 4 5 3 1 3 3 3 5 6 6 6 4 6 5 8 5 4 2 0 2 3 5 5 5 4 2 1 3 5 4 1 4 7 7 6 7 7 6 6 6 6 6 5 9 8 4 5 5 4 4 3 2 0 2 3 4 5 6 6 6 6 6 6 6 6 6 5 5 6 6 5 5 6 7 8 8 7
4 5 5 4 4 4 4 4 4 4 4 4 3 4 5 4 4 5 7 7 6 4 5 5 7 8 7 4 1 4 4 4 6 6 5 1 2 7 5 6 3 5 10 6 7 6 7 6 6 5 6 5 5 10 9 5 5 5 4 4 4 4 5 5 5 3 1 1 4 4 5 6 6 6 6 6 6 6 6 6 7 7 6 7 7 7 7
4 4 4 4 5 5 4 4 4 3 3 4 4 4 5 4 4 5 6 6 5 3 3 5 5 8 7 6 5 3 1 3 3 2 6 2 1 1 0 5 4 8 12 6 6 6 6 6 6 9 13 12 11 9 4 4 4 5 5 4 4 5 5 4 3 3 3 2 0 4 5 6 6 7 7 7 6 6 5 6 6 6 6 6 5 5 6
5 4 5 5 4 5 5 5 4 5 4 4 4 5 4 4 4 3 3 3 4 4 3 3 4 4 6 4 3 2 1 1 1 3 5 4 3 0 1 4 5 5 8 9 6 6 6 6 8 12 9 10 9 7 4 4 3 3 4 4 4 4 3 3 3 3 2 1 1 1 3 6 8 7 6 6 5 6 6 6 7 6 6 6 6 6 6
6 4 4 5 5 5 5 5 5 4 4 5 6 5 4 4 4 3 3 2 3 1 1 2 3 2 3 4 2 2 2 2 2 2 3 4 5 4 2 4 3 4 11 11 5 6 6 8 10 9 9 8 7 6 3 3 3 4 3 3 3 3 3 3 2 2 2 2 2 4 5 3 3 5 6 6 6 6 6 7 6 6 6 6 7 7 7
6 5 4 3 4 4 5 4 4 4 4 5 5 6 5 4 3 4 3 2 2 3 1 2 2 6 4 2 4 2 3 2 5 5 1 1 3 5 4 5 4 8 9 6 6 5 5 6 7 9 8 7 8 5 4 3 2 1 2 3 3 2 3 2 2 3 2 1 1 3 5 1 3 4 4 3 4 4 4 5 6 6 6 4 3 3 4
5 5 5 3 4 5 4 4 4 4 4 5 5 6 4 3 3 4 3 3 3 3 3 1 4 6 6 2 2 5 6 7 3 1 1 3 3 4 3 4 3 8 8 8 8 7 10 9 9 7 6 7 5 3 3 2 3 3 2 1 2 3 4 4 4 3 1 1 1 3 4 5 2 0 4 5 5 5 5 6 6 6 6 6 6 6 6
5 5 4 3 4 4 4 4 4 4 5 5 4 5 5 4 4 3 2 3 3 4 4 3 3 3 2 1 2 2 1 1 1 3 3 4 5 5 3 5 7 8 7 5 5 4 7 8 8 6 8 7 5 4 3 3 2 1 2 2 3 4 4 5 5 5 4 3 2 1 1 1 0 2 2 4 5 5 5 6 6 5 6 6 6 6 7
6 4 3 2 3 4 4 5 6 6 5 5 6 6 5 4 6 5 4 3 4 3 4 4 4 4 3 2 1 0 1 1 0 1 4 5 4 4 4 3 3 7 8 6 5 5 6 9 8 7 5 4 5 4 4 4 3 1 1 2 2 3 4 5 5 6 4 3 3 2 2 2 4 5 3 3 4 4 5 5 5 7 10 7 6 6 6
4 5 5 3 3 3 3 4 4 5 5 6 6 5 4 3 4 4 4 5 4 4 5 6 6 5 4 3 2 2 1 0 1 2 4 4 4 5 5 4 4 5 5 6 6 6 6 5 5 5 5 5 5 5 5 5 4 5 4 3 3 3 4 5 5 5 5 4 3 2 2 2 2 3 5 5 5 5 5 5 6 7 7 8 8 7 7
4 4 3 2 4 4 5 5 5 5 5 5 5 5 5 4 4 5 6 6 2 3 4 3 5 5 3 2 2 3 2 1 0 0 2 3 4 4 5 6 5 6 6 6 6 6 6 6 5 6 6 5 6 5 5 6 4 4 4 3 3 3 3 4 5 5 4 4 4 3 3 3 3 2 2 2 2 3 4 5 6 7 7 7 7 7 8
Wind_Direction
215 207 213 219 188 190 193 193 201 209 210 169 162 191 176 138 170 199 218 181 174 196 195 201 192 179 175 177 173 168 171 172 173 174 178 184 191 196 195 200 195 198 196 198 201 201 201 198 194 192 191 191 189 194 197 190 181 182 176 176 180 174 162 146 78 76 142 173 188 186 181 186 205 209 206 206 202 193 185 182 182 190 197 193 211 241 244
214 219 214 184 183 195 190 204 205 218 212 201 175 186 159 170 195 197 170 185 191 186 199 197 200 193 175 171 163 147 148 167 173 170 174 185 195 197 202 205 204 203 204 202 201 200 200 197 195 192 191 190 189 190 189 182 175 167 157 173 171 157 148 127 122 152 178 198 192 179 181 198 203 204 204 201 195 192 191 188 189 195 197 200 203 217 238
207 206 205 180 165 171 207 194 206 209 198 225 211 174 194 186 174 150 167 174 213 230 198 199 189 64 71 102 138 163 170 157 164 170 183 190 195 201 205 209 210 212 215 214 206 199 202 200 196 193 193 174 150 159 176 180 174 169 168 162 163 159 125 122 159 187 187 191 181 185 215 205 205 204 209 204 198 198 197 197 198 198 191 206 217 222 223
205 210 143 138 113 145 139 157 161 110 147 91 21 81 174 118 222 87 110 182 210 227 163 103 113 142 150 161 165 164 172 164 158 169 180 181 197 203 214 221 221 225 235 240 233 222 217 207 196 183 151 155 167 178 181 182 177 169 164 153 165 154 157 166 182 187 176 156 147 226 227 215 205 206 206 202 202 203 200 202 205 192 208 216 219 226 231
213 250 126 118 92 70 29 315 279 113 91 125 118 123 52 139 126 113 136 216 233 329 320 134 145 159 167 148 154 137 98 121 132 144 154 171 172 191 194 198 208 213 219 221 215 211 216 205 180 165 162 162 178 182 183 168 87 77 84 158 183 168 158 159 170 165 118 122 198 228 220 212 203 197 197 199 204 203 206 204 191 200 216 219 228 233 235
207 293 130 74 106 188 189 227 221 119 131 116 100 75 68 355 114 179 191 211 179 128 103 100 135 141 158 144 182 151 142 138 137 153 161 169 175 184 193 195 196 208 209 214 210 206 180 142 159 167 171 184 187 168 118 103 135 153 161 163 146 137 130 144 157 140 149 183 220 221 216 208 200 194 194 202 204 201 199 196 202 212 218 222 230 235 234
172 204 58 110 164 212 229 202 151 118 114 102 110 125 120 109 99 102 75 36 140 131 127 127 135 126 114 100 124 139 150 148 161 174 186 178 179 178 182 194 204 205 204 128 84 79 78 79 81 90 67 53 61 57 57 60 58 69 60 71 69 109 129 136 152 163 189 206 216 215 211 204 197 197 199 204 200 201 199 204 207 210 214 220 225 229 230
87 63 59 125 235 240 302 331 102 90 80 94 80 41 355 6 83 97 97 92 45 104 121 125 128 123 138 111 170 177 197 176 160 165 179 184 173 175 193 182 157 157 146 141 137 133 140 129 129 123 114 111 108 107 107 110 110 112 108 110 115 117 135 151 174 199 212 219 211 208 203 197 194 198 200 197 201 204 206 211 213 211 219 212 219 222 221
137 153 118 182 267 355 346 40 66 85 145 152 116 104 15 346 327 63 107 110 101 80 82 119 124 128 105 69 4 300 238 241 208 180 187 177 181 164 170 149 146 142 128 130 135 126 124 129 127 122 123 121 122 123 125 132 130 124 133 148 164 167 162 172 183 196 211 218 214 207 199 193 196 198 199 205 210 199 202 207 209 210 211 209 209 215 227
120 113 69 19 36 99 289 258 270 296 207 142 146 100 1 326 351 328 133 143 141 129 135 134 147 112 72 59 1 302 303 169 106 61 83 95 110 97 88 89 98 101 103 105 121 128 123 120 129 134 134 130 126 127 133 141 146 151 167 171 168 172 178 184 193 198 205 214 213 206 200 200 200 203 203 205 206 192 197 204 210 210 206 207 218 224 232
37 52 107 150 127 215 217 303 316 359 103 126 97 76 354 291 329 313 199 143 151 147 149 164 132 93 93 148 252 279 314 44 80 96 98 102 105 127 133 128 125 128 129 129 131 128 131 137 151 144 140 137 136 139 147 154 159 169 181 174 174 178 186 192 200 205 207 214 214 204 202 206 204 203 203 205 206 187 200 202 207 200 189 199 199 154 164
76 137 97 105 206 86 332 304 322 320 213 85 70 74 303 285 320 309 85 89 102 56 62 94 64 117 137 174 234 254 43 88 96 121 127 120 113 110 125 117 130 134 132 122 123 136 146 149 146 144 143 144 148 154 159 160 167 177 182 184 184 185 187 193 203 209 210 213 213 206 205 209 206 206 204 199 192 191 198 195 193 177 167 153 160 177 180
60 67 131 93 20 353 344 340 326 318 315 75 73 134 221 294 310 31 86 76 82 95 79 77 88 91 160 178 204 240 190 89 84 93 104 118 131 138 139 136 130 131 143 146 152 155 150 150 149 148 147 147 157 163 164 170 178 185 187 187 186 192 192 196 204 213 217 218 217 213 209 207 203 201 195 192 183 182 178 151 93 52 37 22 340 237 213
102 125 98 185 186 188 322 330 325 296 38 61 136 230 203 221 58 73 79 82 62 77 79 84 90 112 45 252 248 106 77 94 115 115 110 103 88 73 86 126 138 134 136 132 131 136 151 154 154 153 151 153 158 163 171 187 195 190 186 190 193 196 195 200 210 217 225 229 228 227 224 209 175 179 163 139 152 151 118 95 89 96 140 200 224 224 235
52 55 72 45 18 282 338 315 353 22 88 202 199 152 70 218 98 80 70 74 78 83 88 99 123 115 108 100 76 72 99 105 122 128 124 124 133 137 137 138 164 143 136 149 156 159 162 161 161 161 158 159 169 177 186 199 186 177 190 197 202 205 210 218 219 220 230 235 240 247 249 171 161 153 127 141 140 123 108 101 98 102 250 236 213 216 219
124 72 103 176 214 261 324 44 76 322 29 167 166 139 86 302 85 82 75 51 43 81 99 101 72 45 50 35 72 74 71 89 98 103 105 114 118 119 108 116 137 136 126 134 148 166 170 166 162 161 164 167 180 187 203 196 174 183 190 203 207 215 225 234 232 64 70 67 64 67 67 67 52 94 207 184 132 127 120 112 126 176 214 196 202 203 206
102 109 161 286 277 278 344 62 58 51 36 38 56 88 74 64 24 69 77 67 49 33 54 54 60 62 355 46 16 83 99 98 115 132 149 149 147 144 143 148 155 162 160 156 160 170 176 170 172 176 178 172 180 201 213 165 190 191 201 201 206 221 31 74 109 143 153 174 170 160 164 162 167 174 155 139 132 144 127 113 164 206 220 197 196 202 191
125 112 136 244 342 7 22 57 58 56 41 25 44 60 68 43 29 29 87 95 83 65 61 71 27 51 20 68 53 68 61 76 62 80 90 99 107 116 120 134 156 155 152 154 160 169 169 177 181 183 181 166 180 209 102 68 77 85 96 110 109 106 106 101 100 124 219 199 168 173 176 181 175 167 157 157 123 106 92 133 175 181 203 194 196 187 187
86 68 324 37 40 36 23 37 54 54 52 49 40 48 54 45 47 56 63 96 101 94 69 78 100 96 139 104 113 126 131 113 116 119 115 118 141 155 159 167 155 153 160 164 171 162 162 168 168 168 173 190 165 77 87 94 92 80 58 27 28 113 154 169 183 181 175 179 164 136 132 133 143 144 134 131 135 134 138 161 180 191 188 183 175 179 184
95 164 215 186 93 77 68 54 39 24 21 40 53 61 58 45 37 44 41 44 44 53 72 85 78 42 11 83 89 91 84 77 70 77 98 123 129 162 179 169 158 148 146 141 141 146 153 159 161 175 172 104 101 103 96 95 93 101 124 160 200 203 190 187 174 166 171 155 143 133 131 128 116 96 74 122 131 137 153 162 160 167 164 167 174 181 197
43 59 33 172 83 60 52 52 50 15 346 31 41 44 44 38 32 18 22 43 50 44 41 38 58 35 345 110 109 102 107 96 82 65 79 137 169 167 169 167 153 150 147 143 145 137 137 149 156 132 107 109 104 97 91 80 92 138 155 176 191 229 234 199 171 162 158 144 146 136 116 82 59 46 16 25 90 80 32 17 287 157 151 147 152 149 134
148 170 193 178 116 134 65 69 80 69 17 47 32 38 41 42 35 19 20 7 5 25 27 26 342 80 294 281 129 103 148 166 168 105 87 141 147 122 80 86 105 106 115 130 131 127 129 128 120 119 111 100 97 100 105 87 48 359 212 192 159 196 213 208 165 158 152 148 142 135 129 125 116 78 53 50 29 84 99 36 50 42 116 147 153 136 106
181 225 137 164 112 112 178 131 116 110 99 86 55 10 25 44 55 32 38 25 350 333 342 324 313 306 263 249 200 183 210 217 163 168 157 149 142 136 134 123 120 129 138 132 115 110 103 88 84 73 57 45 68 93 86 87 224 227 216 174 167 179 191 194 184 171 160 152 149 138 140 134 122 117 104 53 50 49 56 53 46 48 74 99 104 110 122
46 71 109 105 97 120 152 221 93 75 87 99 103 91 39 67 60 48 87 183 232 312 329 343 331 312 289 242 183 200 218 188 144 176 193 173 155 147 150 146 143 141 141 140 139 136 133 122 115 114 123 139 144 101 151 176 210 213 229 189 181 197 198 199 188 172 167 160 146 139 138 138 137 142 136 129 76 35 36 33 34 42 54 72 84 84 81
136 134 123 102 88 91 119 130 102 76 59 77 75 58 36 38 35 58 46 24 29 30 22 0 351 7 2 322 225 207 197 192 184 181 187 177 157 149 153 156 160 158 158 157 153 149 150 148 145 142 147 153 135 168 247 243 202 202 199 191 178 188 197 184 184 180 164 159 155 148 150 152 159 158 144 136 123 104 21 26 44 52 47 53 71 86 86
100 100 105 104 87 81 184 63 38 27 33 44 53 39 26 30 36 40 35 35 24 18 25 11 3 352 360 358 327 271 234 190 194 184 172 163 152 150 165 179 178 170 163 164 162 161 161 154 147 148 164 186 182 185 192 198 191 187 183 174 170 165 176 176 173 178 169 162 161 164 163 164 160 148 143 141 142 144 131 104 57 34 50 50 55 69 69
81 105 92 64 56 47 43 73 77 32 42 43 50 42 29 24 27 29 23 25 21 21 20 15 9 357 357 5 360 1 304 308 236 181 187 179 175 183 185 178 173 172 169 169 171 164 150 148 155 174 186 193 186 172 169 155 152 145 138 126 142 169 168 157 172 173 173 162 168 166 160 164 160 155 152 151 147 149 156 158 161 158 167 134 30 60 86
57 42 67 95 88 71 57 50 64 51 45 39 34 28 20 26 25 19 12 7 7 1 9 21 16 12 8 352 352 341 342 333 234 216 185 197 185 172 177 179 175 175 175 169 168 158 140 142 149 143 165 167 161 161 146 132 132 119 97 84 91 67 162 174 170 170 171 175 161 164 173 173 169 164 157 155 159 158 154 159 154 152 150 169 160 213 234
63 67 67 83 102 106 79 56 44 38 27 19 26 30 25 23 15 10 4 6 3 6 3 354 2 22 10 346 348 340 330 312 262 238 217 203 183 181 181 180 181 171 154 164 161 143 145 151 150 145 149 138 123 114 114 114 111 111 104 107 97 97 101 112 128 122 130 135 132 145 152 153 153 154 157 156 146 149 162 160 158 161 156 147 130 101 41
68 67 67 60 56 54 53 44 39 32 30 23 27 21 21 22 13 359 3 355 354 5 348 345 352 350 353 356 350 348 332 310 276 249 241 223 213 200 180 157 120 127 136 117 108 120 128 131 121 102 102 99 107 110 110 112 109 99 105 106 111 119 112 116 99 94 91 97 122 127 122 122 134 144 154 160 160 160 162 167 163 156 154 161 158 162 174
53 52 53 54 53 55 59 52 42 33 25 19 24 19 9 13 17 4 348 342 353 349 342 347 340 338 346 344 336 330 341 340 336 355 28 17 23 28 147 153 163 182 158 142 142 138 138 134 136 152 171 119 108 116 106 94 94 96 94 100 105 128 135 125 123 130 127 123 125 124 122 125 135 140 146 153 161 165 164 159 152 153 158 154 159 167 191
59 44 36 28 32 38 38 34 35 29 18 19 22 14 359 7 357 343 334 336 321 319 328 340 341 335 328 328 329 329 342 21 47 31 22 26 26 16 66 96 103 119 138 147 148 151 149 139 126 105 74 68 60 67 103 109 116 130 145 142 136 137 142 139 132 136 145 150 148 144 150 146 154 152 139 158 178 165 155 150 152 154 151 156 166 183 172
53 44 35 25 24 24 20 13 29 10 6 9 1 356 355 358 353 337 323 313 313 323 328 322 324 330 330 332 330 322 311 128 77 90 84 64 49 59 57 65 81 81 61 50 55 43 46 60 48 38 57 63 52 55 127 139 141 139 142 133 140 147 145 152 151 149 156 153 159 166 167 167 165 164 165 162 149 138 141 145 150 149 152 161 172 172 165
70 95 106 99 93 67 38 351 353 3 344 342 335 342 347 342 334 326 330 338 341 339 330 327 329 336 338 334 330 324 290 197 192 154 158 152 138 111 109 107 100 98 106 102 88 94 105 111 140 168 157 135 143 123 123 127 132 134 133 136 136 129 126 134 145 143 142 155 165 160 161 168 168 165 157 157 152 145 144 147 152 148 150 160 174 167 159
37 25 23 12 13 13 22 13 359 347 344 338 330 325 316 312 317 316 327 358 359 333 324 327 337 335 334 332 330 327 298 246 228 177 181 165 150 133 127 119 120 120 110 100 119 118 83 72 87 121 140 123 120 108 115 129 136 129 129 125 121 116 117 113 121 133 134 129 130 124 107 86 66 93 155 163 160 157 145 144 145 147 152 159 171 167 177
21 16 8 7 359 355 351 350 338 336 329 317 313 316 327 325 329 345 337 318 309 332 336 334 325 324 325 327 319 311 302 260 217 187 172 164 152 143 136 135 134 128 126 129 145 142 135 181 177 144 125 119 109 114 120 121 113 114 111 101 100 101 101 103 105 97 104 112 111 101 107 101 85 64 91 116 121 128 142 152 154 150 145 158 162 174 184
19 7 351 344 334 337 333 332 328 329 324 329 337 344 335 330 324 314 310 322 329 323 323 322 319 317 308 301 288 281 269 231 201 194 178 158 149 144 146 138 136 137 140 140 175 178 176 182 149 133 121 105 114 119 125 117 113 119 113 111 109 113 111 106 108 113 123 126 123 115 107 112 139 148 181 145 157 169 176 166 157 151 144 151 168 179 186
347 352 344 340 332 332 328 317 318 331 346 343 330 310 304 298 302 304 301 307 308 305 305 299 288 281 281 282 288 319 359 8 359 340 307 168 152 144 147 147 151 154 157 168 169 167 196 141 123 109 110 106 109 115 116 112 110 115 122 126 127 127 132 137 139 141 135 138 137 135 139 143 150 163 170 175 177 173 181 156 149 153 156 165 177 185 182
347 335 333 323 329 322 315 313 323 323 321 311 305 306 306 305 303 308 297 289 282 282 286 289 291 292 283 271 247 180 166 141 135 137 284 280 177 149 163 177 173 158 145 139 139 154 122 112 108 109 104 100 89 89 107 104 91 98 121 130 137 147 147 153 158 157 154 152 138 147 161 169 173 179 187 193 190 179 169 165 165 168 172 176 174 173 173
334 330 315 316 315 306 305 303 303 303 296 284 291 303 307 321 323 315 305 302 297 301 301 299 293 287 288 274 235 210 192 167 152 153 163 271 289 130 111 93 119 125 130 134 129 126 125 116 103 102 109 116 113 100 96 100 90 86 106 134 152 160 165 161 158 160 175 171 186 184 185 197 195 195 194 199 181 156 169 174 162 160 159 163 170 173 181
325 327 326 324 310 302 302 306 305 297 293 294 287 282 297 319 314 313 306 305 306 315 316 315 304 290 287 281 272 239 55 106 128 124 117 133 269 346 65 85 113 123 123 124 138 132 116 111 114 111 123 122 118 108 85 90 85 81 78 102 134 161 165 168 178 184 187 190 195 198 204 205 200 202 203 210 197 181 182 188 185 175 164 169 176 181 190
330 333 333 333 328 321 311 306 309 323 321 307 298 311 317 317 322 312 314 316 316 328 329 318 317 301 285 287 2 50 48 52 62 56 48 40 77 165 138 141 185 158 139 121 101 94 102 105 106 117 122 126 128 122 113 104 96 92 86 79 65 65 184 212 218 209 201 192 196 208 212 206 201 203 196 192 192 189 193 195 193 185 176 167 174 185 191
332 342 333 328 323 325 332 335 335 331 329 324 321 329 329 326 331 342 341 339 333 343 340 344 347 347 345 339 65 91 79 83 84 84 87 76 265 271 201 171 159 150 127 99 108 103 114 115 121 127 133 129 133 129 113 112 111 103 87 80 93 95 83 78 69 57 48 275 270 255 227 212 207 206 201 197 198 196 192 190 194 194 187 181 174 174 189
328 340 333 331 332 332 333 334 324 325 331 312 313 332 332 328 344 353 344 334 333 327 338 349 1 358 340 355 357 51 60 105 114 154 120 135 252 306 279 133 152 145 133 115 116 121 124 129 136 139 134 132 130 124 116 112 100 94 91 105 105 99 92 84 85 96 96 83 228 243 247 246 226 211 203 202 197 198 193 193 196 193 190 183 179 175 180
331 331 330 325 328 333 332 327 325 313 302 308 332 339 334 339 339 337 334 333 330 328 346 353 353 5 336 337 325 339 351 27 237 173 141 137 131 137 256 148 137 131 130 129 127 129 136 144 143 139 137 139 145 131 104 109 104 111 114 108 106 107 108 106 97 70 61 60 23 297 242 226 226 218 201 193 185 184 190 191 195 193 187 177 172 180 180
329 322 320 329 337 330 323 325 319 330 344 342 336 332 335 337 332 316 306 309 320 329 284 342 343 315 349 20 335 349 336 298 314 296 246 192 172 198 203 148 132 135 134 131 126 136 150 151 142 143 145 161 138 109 110 109 107 121 130 132 130 121 108 103 98 91 88 43 337 328 316 273 220 186 166 167 175 174 183 184 186 182 182 174 181 175 174
317 316 321 320 315 320 331 346 356 0 349 341 335 318 314 316 309 307 301 289 276 286 197 141 334 304 288 147 163 166 96 8 305 304 256 129 116 138 167 156 153 136 123 132 136 147 154 151 154 161 167 157 122 124 138 125 115 96 147 163 159 130 137 135 137 135 124 93 8 347 340 324 203 184 161 151 156 169 168 160 162 168 170 160 161 142 154
301 302 307 323 324 321 341 357 10 357 332 314 298 291 296 290 290 301 302 304 302 303 317 309 179 205 204 193 202 165 168 182 161 256 274 137 154 149 150 147 162 129 139 148 154 165 168 165 173 170 160 141 126 138 145 136 121 111 102 121 167 171 164 160 163 166 178 179 76 31 4 359 338 155 141 160 165 158 151 147 149 146 142 142 147 146 143
277 275 285 328 333 338 339 335 340 339 321 305 307 299 300 314 316 307 303 307 320 322 319 316 315 306 300 215 185 151 182 149 146 199 213 164 149 167 181 176 190 158 141 143 157 169 176 170 171 165 166 142 148 169 163 164 167 166 164 170 203 214 191 183 182 193 186 185 192 164 115 71 192 246 207 166 163 162 149 148 149 148 147 148 147 151 152
276 286 299 334 329 319 314 325 323 309 301 309 298 291 302 329 340 320 320 324 312 313 324 316 318 309 309 304 288 263 277 279 49 122 156 167 163 160 166 159 141 144 150 154 163 178 182 181 177 181 186 158 168 174 169 174 183 187 220 235 231 226 206 191 191 200 196 191 190 185 189 195 188 196 195 176 173 170 165 160 156 147 142 142 150 157 158
288 276 264 244 238 255 264 259 263 276 278 276 275 281 289 294 286 293 303 301 313 323 322 323 326 324 325 320 287 264 275 3 357 143 150 174 165 169 163 164 160 160 160 165 172 181 188 192 193 199 195 188 188 187 183 188 191 209 206 190 193 183 184 193 197 203 208 203 193 193 208 234 232 212 194 182 173 171 171 166 162 161 157 155 158 165 171
279 267 265 243 231 237 253 267 266 257 257 264 272 280 277 269 278 294 294 293 279 263 277 302 315 307 318 327 291 267 264 218 260 42 124 157 170 178 184 176 170 177 170 177 186 190 193 199 204 207 203 199 201 207 212 201 180 179 175 171 172 183 195 198 208 219 221 186 156 169 176 168 164 178 212 231 212 190 196 192 184 178 170 168 165 165 169